Tracking 34719 objects as of 12-Jul-2026
HD Live streaming from Space Station
objects crossing your sky now

TITAN 3D DEB

Track TITAN 3D DEB now!
10-day predictions


NORAD ID: 6824
Int'l Code: 1972-079E
Perigee: 1,441.0 km
Apogee: 1,448.2 km
Inclination: 95.5 °
Period: 114.6 minutes
Semi major axis: 7815 km
RCS: 0.0728 m2 (small)
Launch date: October 10, 1972
Source: United States (US)
Launch site: AIR FORCE WESTERN TEST RANGE (AFWTR)

Note: This is SATELLITE DEBRIS
Your satellite tracking list
Your tracking list is empty




NASA's NSSDC Master Catalog

Two Line Element Set (TLE):
1 06824U 72079E   26191.49872963  .00000013  00000-0  15089-3 0  9992
2 06824  95.4939 190.9154 0004599 281.9628 231.2674 12.56492747463783
Source of the keplerian elements: AFSPC